Location: Unspecified
(0.0000°N, 0.0000°E)
Time: 12:15:11
(UTC+00:00)

OBJECT M - Pass Details

Date: 25 February 2026
Orbit: 539 x 546 km, 97.4° (Epoch: 8 March)

Event Time Altitude Azimuth Distance (km) Brightness Sun altitude
Rises 04:45:20 0° 183° (S) 2,710 ? -21.6°
Reaches altitude 10° 04:47:35 10° 192° (SSW) 1,814 ? -21.1°
Enters shadow 04:49:06 21° 205° (SSW) 1,273 ? -20.7°
